THORAD AGENA D DEB, 4867

Orbit data source: Space-Track

THORAD AGENA D DEB, 4867 is space debris in SSO originally from a launch on Wed, 08 Apr 1970 UTC launched from the Air Force Western Test Range (AFWTR). Debris objects in space refer to the collection of defunct objects orbiting the Earth. Examples of debris include non-operational satellites, rocket bodies, and fragments generated from explosions, collisions, or faulty payload assembly.

Loading next visibility...
Identifier
4867, 1970-025EX
Orbit
SSO
Country
Flag of USUS
Related business
Manufacturer
Unknown
Mission
Spacecraft
Bus & Motor
Unknown
Mass
Unknown
Launch date (UTC)
1970-04-08 (56 years ago)
Launch vehicle
Unknown
Launch site
Air Force Western Test Range (AFWTR)
Object type
Payload
Rocket body
Debris
Shape & HBR
Unknown shape, 0.1 m
Radar Cross Section
Small (<0.1 m²)

Expand to show TLE details & history
Last TLE update: 10 hours ago

TLE from 10 hours ago
0 THORAD AGENA D DEB
1 04867U 70025EX  26132.81404006  .00000045  00000-0  58329-4 0  9996
2 04867  99.6330  74.5724 0122960 210.4102 148.9890 14.01752605849782
Epoch: 2026-05-12T19:32Z
TLE epoch observation values (Epoch: 2026-05-12T19:32:13.061Z)
Latitude
0.00005°
Longitude
-89.06505°
Altitude
967.464 km
Speed
7.329 km/s
True Right ascension
04h 58m 17s
True Declination
0° 00' 00"
Sunlit
Object was in daylight at epoch
Visualization orbit readout
Latitude
Unknown
Longitude
Unknown
Altitude
Unknown
Speed
Unknown
Apparent Right ascension
Unknown
Apparent Declination
Unknown
Sunlit
N/A
Visualization observer readout
Local Sidereal Time
13:36:05
Azimuth
Unknown
Elevation
Unknown
Doppler factor
Unknown
Orbital elements
Apogee altitude
974.268 km
Perigee altitude
795.654 km
Semi-major axis
7,263.098 km
Eccentricity
0.0123
Inclination
99.633°
RAAN
74.5724°
Arg. of periapsis
210.4102°
True anomaly
149.70547°
Mean anomaly
148.989°
Eccentric anomaly
149.34817°
Mean motion
3.50639 °/min
Orbital period
102.67 mins
BSTAR
0.000058329

Documentation

Showing up to 5 results
|